sat.trackr.live / text

‹ back to catalog

STARLINK-36736

NORAD 67911 · 2026-036H

PAYLOAD ACTIVE UNKNOWN

§ Identity

Operator
Country
US
Launch date
2026-02-22
Launch site
AFETR
Launch vehicle
Mass (kg)
RCS (m²)

Purposes: comms

External: N2YO · Heavens-Above · Gunter

§ Orbital elements

Epoch: 2026-05-25T03:19:56.604576Z

Period
94.27 min
Inclination
43.0015°
Eccentricity
0.0001377
Mean motion
15.27592948 rev/d
Perigee alt
482.1 km
Apogee alt
484.0 km
Semi-major
6,861.1 km
B*
5.0308e-4
RAAN
173.5377°
Arg perigee
250.3240°
Mean anomaly
109.7463°
Rev number
1,541

§ Raw data

STARLINK-367361 67911U 26036H   26145.13884959  .00013613  00000+0  50308-3 0  99982 67911  43.0015 173.5377 0001377 250.3240 109.7463 15.27592948 15419

JSON: /api/v1/satellites/67911 · /tle

For live sub-satellite position, see the globe view (requires WebGL).

§ Visibility from observer

Set your observer location to see the next 7 days of passes ≥ 10°. The values pass through the URL so the page stays shareable.

No JS? Fill the form by hand. The geolocation button needs JavaScript.